This demonstration page uses our WeatherBlox Daily Observations layout. Learn more.

Left ArrowRight Arrow

39.08367, -84.50855

Hourly Observations for April 4, 2022

Temp ( °F °C ) Dew Point ( °F °C ) Humidity (%) Winds ( mph kmh ) Pressure ( in mb ) Visibility ( mi km ) Precip ( " mm )
12:53 am 00:53 Clear 37 2.8 34 1.1 89 89 Calm 30.05 1018 10 16 0.00 0.00
4:53 am 04:53 Cloudy with Light Rain 42 5.6 38 3.3 85 85 S 5 7 30.00 1016 10 16 0.01 0.25
5:53 am 05:53 Cloudy 44 6.7 35 1.7 71 71 Calm 30.00 1016 10 16 0.01 0.25
6:53 am 06:53 Cloudy with Light Rain 43 6.1 38 3.3 82 82 NE 5 7 29.99 1016 10 16 0.00 0.00
7:53 am 07:53 Cloudy 43 6.1 39 3.9 86 86 NE 3 6 30.01 1016 10 16 0.00 0.00
8:53 am 08:53 Cloudy 44 6.7 40 4.4 85 85 NE 3 6 30.00 1016 10 16 0.00 0.00
9:53 am 09:53 Cloudy 47 8.3 35 1.7 63 63 VRB 3 6 30.00 1016 10 16 0.00 0.00
10:53 am 10:53 Cloudy 48 8.9 35 1.7 61 61 Calm 30.00 1016 10 16 0.00 0.00
11:53 am 11:53 Cloudy 50 10 36 2.2 59 59 VRB 3 6 29.98 1015 10 16 0.00 0.00
12:53 pm 12:53 Cloudy 52 11.1 37 2.8 57 57 S 8 13 29.96 1015 10 16 0.00 0.00
1:53 pm 13:53 Cloudy 55 12.8 36 2.2 49 49 S 9 15 29.95 1014 10 16 0.00 0.00
2:53 pm 14:53 Cloudy 56 13.3 37 2.8 49 49 SW 10 17 29.93 1014 10 16 0.00 0.00
3:53 pm 15:53 Cloudy 56 13.3 38 3.3 51 51 SW 10 17 29.91 1013 10 16 0.00 0.00
4:53 pm 16:53 Mostly Sunny 59 15 41 5 51 51 SSW 14 22 29.88 1012 10 16 0.00 0.00
5:53 pm 17:53 Partly Cloudy 59 15 42 5.6 54 54 SSW 13 20 29.87 1012 10 16 0.00 0.00
6:53 pm 18:53 Sunny 57 13.9 41 5 55 55 S 10 17 29.87 1012 10 16 0.00 0.00
7:53 pm 19:53 Sunny 52 11.1 38 3.3 59 59 S 7 11 29.88 1012 10 16 0.00 0.00
8:53 pm 20:53 Clear 49 9.4 38 3.3 66 66 SSW 5 7 29.89 1012 10 16 0.00 0.00
9:53 pm 21:53 Clear 46 7.8 38 3.3 73 73 Calm 29.91 1013 10 16 0.00 0.00
10:53 pm 22:53 Clear 43 6.1 38 3.3 82 82 Calm 29.90 1013 10 16 0.00 0.00
11:53 pm 23:53 Clear 44 6.7 40 4.4 85 85 Calm 29.91 1013 10 16 0.00 0.00

Powered by AerisWeather